Location: Wangen+im+Allg�u
(47.7098°N, 9.8383°E)
Time: 19:29:37
(UTC+02:00)

OTV 5 (USA 277) - Visible Passes

Search period start: 23 April 2018 00:00
Search period end: 03 May 2018 00:00
Orbit: 310 x 323 km, 54.5° (Epoch: 21 April)

Date Brightness Start Highest point End Pass type
(mag) Time Alt. Az. Time Alt. Az. Time Alt. Az.
23 Apr ? 21:21:07 10° W 21:23:33 28° NNW 21:26:00 10° NE visible
23 Apr ? 22:56:24 10° NW 22:58:27 19° N 22:58:47 18° NNE visible
24 Apr ? 21:36:00 10° WNW 21:38:12 21° N 21:40:24 10° NE visible
24 Apr ? 23:10:57 10° NW 23:12:42 20° N 23:12:42 20° N visible
25 Apr ? 21:50:50 10° NW 21:52:53 19° N 21:54:56 10° NE visible
25 Apr ? 23:25:21 10° NW 23:26:33 20° NNW 23:26:33 20° NNW visible
26 Apr ? 22:05:29 10° NW 22:07:36 20° N 22:09:30 11° NE visible
26 Apr ? 23:39:42 10° NW 23:40:22 16° NW 23:40:22 16° NW visible
27 Apr ? 22:19:58 10° NW 22:22:16 24° NNE 22:23:18 19° NE visible
27 Apr ? 23:54:06 10° WNW 23:54:09 10° WNW 23:54:09 10° WNW visible
28 Apr ? 20:59:58 10° NW 21:02:02 19° N 21:04:05 10° NE visible
28 Apr ? 22:34:19 10° NW 22:36:53 36° NNE 22:37:05 35° NE visible
29 Apr ? 21:14:31 10° NW 21:16:44 21° N 21:18:55 10° ENE visible
29 Apr ? 22:48:40 10° NW 22:50:53 51° NW 22:50:53 51° NW visible
30 Apr ? 21:28:56 10° NW 21:31:22 28° NNE 21:33:48 10° E visible
30 Apr ? 23:03:10 10° WNW 23:04:41 27° W 23:04:41 27° W visible
01 May ? 21:43:17 10° NW 21:45:56 48° NNE 21:47:39 19° E visible
01 May ? 23:17:58 10° W 23:18:31 13° W 23:18:31 13° W visible
02 May ? 21:57:41 10° WNW 22:00:24 77° SSW 22:01:30 31° SE visible
